KAITUO 1B
1 40912U 15049P   17364.05827302  .00001807  00000-0  91155-4 0  9994
2 40912  97.4511   8.8322 0013862 237.0822 157.4000 15.18336757126004
TIANWANG 1C (TW-1C)
1 40926U 15051B   17364.39655229  .00009367  00000-0  19065-3 0  9994
2 40926  97.2073  42.6354 0011152 164.9391 323.1605 15.46419340127207
TIANWANG 1B (TW-1B)
1 40927U 15051C   17364.47731008  .00009110  00000-0  19308-3 0  9990
2 40927  97.2158  42.6384 0010229 176.4947 291.1565 15.45251976127144
TIANWANG 1A (TW-1A)
1 40928U 15051D   17364.06195124  .00003887  00000-0  10703-3 0  9994
2 40928  97.2062  36.3101 0011095 204.9303 212.7829 15.37695391126786
LAPAN A2
1 40931U 15052B   17364.19588390  .00000666  00000-0  38295-5 0  9994
2 40931   6.0023 275.2014 0011705 134.8703 225.2074 14.76560711121982
LQSAT
1 40958U 15057A   17364.43060175  .00000039  00000-0  13752-4 0  9995
2 40958  97.9596  76.1269 0018671 153.4850 206.7315 14.73009547120000
CHUBUSAT 2
1 41338U 16012B   17364.28383704  .00000362  00000-0  21596-4 0  9993
2 41338  31.0041 306.6998 0013986 201.0401 158.9660 14.99897334102450
CHUBUSAT 3
1 41339U 16012C   17364.25247421  .00000385  00000-0  23283-4 0  9996
2 41339  31.0104 305.7399 0013816 207.5272 152.4636 15.00090827102430
OUFTI-1
1 41458U 16025C   17364.09434512  .00002086  00000-0  11339-3 0  9991
2 41458  98.1594  52.7555 0171207 354.7960   5.1485 15.04102606 92011
E-STAR-2
1 41459U 16025D   17364.07347293  .00001943  00000-0  10640-3 0  9994
2 41459  98.1631  52.6375 0171943 355.5225   4.4465 15.03882323 92002
AAUSAT 4
1 41460U 16025E   17364.20102887  .00002784  00000-0  14939-3 0  9998
2 41460  98.1559  53.0385 0163710 352.3080   7.5635 15.05108215 92068
NUSAT 1
1 41557U 16033B   17364.22115950  .00001407  00000-0  54332-4 0  9994
2 41557  97.4499  83.6846 0014907  40.5089 319.7256 15.27871774 88354
BEESAT 4
1 41619U 16040W   17364.22064169  .00001624  00000-0  74900-4 0  9990
2 41619  97.4389  64.5464 0013403 101.6286 258.6455 15.21617039 72398
PRATHAM
1 41783U 16059A   17364.39998203  .00000077  00000-0  24434-4 0  9993
2 41783  98.1426  63.4773 0032341 265.1729  94.5780 14.62890983 67286
ALSAT 1N
1 41789U 16059G   17364.43052527  .00000111  00000-0  30283-4 0  9992
2 41789  98.1428  64.3918 0026910 258.3537 101.4646 14.64115269 67324
NAYIF 1
1 42017U 17008BX  17363.91156879 +.00001739 +00000-0 +75000-4 0  9992
2 42017 097.4717 064.8266 0005033 249.7625 110.3071 15.23895044048285
LILACSAT-1
1 42725U 98067ME  17363.82895670  .00016812  00000-0  19237-3 0  9998
2 42725  51.6367 136.9781 0004901 313.6057  46.4530 15.62263439 33980
MAX VALIER SAT
1 42778U 17036P   17364.24966478  .00001117  00000-0  53543-4 0  9996
2 42778  97.4279  61.5815 0011359 305.2389  54.7783 15.20945018 28822
